Location: Podia
(1.5569°N, 32.3469°E)
Time: 10:51:00
(UTC+00:00)

N. Korean satellite - Pass Details

Date: 12 August 2020
Orbit: 455 x 503 km, 97.2° (Epoch: 22 September)

Event Time Altitude Azimuth Distance (km) Brightness Sun altitude
Rises 02:44:23 0° 22° (NNE) 2,546 10.8 -16.8°
Reaches altitude 10° 02:46:30 10° 30° (NNE) 1,675 9.9 -16.3°
Maximum altitude 02:49:55 41° 101° (E) 728 7.9 -15.5°
Drops below altitude 10° 02:53:24 10° 172° (S) 1,702 9.2 -14.6°
Sets 02:55:34 0° 179° (S) 2,592 10.1 -14.1°
